(362997) = 2011 VK9 = 2013 CD158

Discovered at Kitt Peak on 1993-09-15 by Spacewatch.

Orbit

Orbit type: Main Belt

Note: WebGL enabled browser required.

epoch2024-03-31.0
epoch JD2460400.5
perihelion date2022-11-14.73720
perihelion JD2459898.23720
argument of perihelion (°)31.32906
ascending node (°)7.93811
inclination (°)6.38604
eccentricity0.1087070
perihelion distance (AU)2.0955677
Tisserand w.r.t. Jupiter3.5
ΔV w.r.t. Earth (km/sec)9.2
semimajor axis (AU)2.3511547
mean anomaly (°)137.31344
mean daily motion (°/day)0.27338960
aphelion distance (AU)2.607
period (years)3.61
P-vector [x]0.77464860
P-vector [y]0.55477243
P-vector [z]0.30355740
Q-vector [x]-0.63220533
Q-vector [y]0.66770854
Q-vector [z]0.39304163
absolute magnitude17.49
phase slope0.15
uncertainty0
referenceMPEC 2024-F14
observations used222
oppositions11
arc length (days)11141
first opposition used1993
last opposition used2024
residual rms (arc-secs)0.66
perturbers coarse indicatorM-v
perturbers precise indicator003Ek
first observation date used1993-09-15.0
last observation date used2024-03-17.0
computer nameMPCLINUX
Minimum Orbit Intersection Distances (in AU)
for orbit epoch: 2460400.5, reference: E2024-GB3
Mercury1.77071
Venus1.37666
Earth1.1055
Mars0.62154
Jupiter2.76986
Saturn6.82753
Uranus15.9241
Neptune27.7281

Observations

224 total observations over interval: 1993 09 15.36317 – 2024 03 17.517123
These data are available for download (format description).

Date (UT) J2000 RA J2000 Dec Magn Location Ref
1993 09 15.36317 00 25 29.75 +00 50 51.1   691 – Steward Observatory, Kitt Peak-Spacewatch MPS 457869
1993 09 15.39537 00 25 27.89 +00 50 47.4 20.2 V 691 – Steward Observatory, Kitt Peak-Spacewatch MPS 457869
1993 09 15.42800 00 25 26.00 +00 50 43.6   691 – Steward Observatory, Kitt Peak-Spacewatch MPS 457869
1993 10 14.10642 23 57 30.80 -00 02 32.7 19.6 V 691 – Steward Observatory, Kitt Peak-Spacewatch MPS 457869
1993 10 14.12367 23 57 29.94 -00 02 34.7   691 – Steward Observatory, Kitt Peak-Spacewatch MPS 457869
1993 10 14.18271 23 57 26.87 -00 02 37.7   691 – Steward Observatory, Kitt Peak-Spacewatch MPS 457869
2006 04 07.24600 12 08 16.47 -00 52 56.5 21.1 V G96 – Mt. Lemmon Survey MPS 457869
2006 04 07.25252 12 08 16.08 -00 52 55.7 21.7 V G96 – Mt. Lemmon Survey MPS 457869
2006 04 07.25912 12 08 15.72 -00 52 54.9 20.2 V G96 – Mt. Lemmon Survey MPS 457869
2006 04 07.26575 12 08 15.36 -00 52 54.1 20.0 V G96 – Mt. Lemmon Survey MPS 457869
2011 09 21.36920 23 57 56.508 -02 27 30.96 19.9 w F51 – Pan-STARRS 1, Haleakala MPS 457869
2011 09 21.36986 23 57 56.487 -02 27 31.26 20.0 w F51 – Pan-STARRS 1, Haleakala MPS 457869
2011 09 21.38325 23 57 55.605 -02 27 33.03 19.8 w F51 – Pan-STARRS 1, Haleakala MPS 457869
2011 09 21.38392 23 57 55.572 -02 27 33.28 19.9 w F51 – Pan-STARRS 1, Haleakala MPS 457869
2011 09 21.39730 23 57 54.708 -02 27 34.97 19.8 w F51 – Pan-STARRS 1, Haleakala MPS 457869
2011 09 21.39796 23 57 54.667 -02 27 35.18 19.8 w F51 – Pan-STARRS 1, Haleakala MPS 457869
2011 09 21.41136 23 57 53.799 -02 27 36.96 19.7 w F51 – Pan-STARRS 1, Haleakala MPS 457869
2011 09 21.41202 23 57 53.765 -02 27 37.16 19.8 w F51 – Pan-STARRS 1, Haleakala MPS 457869
2011 10 18.24296 23 34 05.55 -03 00 54.5 20.3 V G96 – Mt. Lemmon Survey MPS 457869
2011 10 18.24913 23 34 05.30 -03 00 54.4 20.2 V G96 – Mt. Lemmon Survey MPS 457869
2011 10 18.25530 23 34 05.08 -03 00 54.2 20.1 V G96 – Mt. Lemmon Survey MPS 457869
2011 10 18.26147 23 34 04.83 -03 00 54.1 20.0 V G96 – Mt. Lemmon Survey MPS 457869
2011 11 14.34010 23 29 40.287 -01 49 57.87 20.8 i F51 – Pan-STARRS 1, Haleakala MPS 400262
2011 11 14.34305 23 29 40.327 -01 49 57.22 20.8 i F51 – Pan-STARRS 1, Haleakala MPS 400262
2011 11 14.34600 23 29 40.364 -01 49 56.21 20.8 i F51 – Pan-STARRS 1, Haleakala MPS 400262
2011 11 14.34895 23 29 40.416 -01 49 55.30 20.7 i F51 – Pan-STARRS 1, Haleakala MPS 400262
2011 11 14.36079 23 29 40.593 -01 49 51.95 20.8 i F51 – Pan-STARRS 1, Haleakala MPS 400262
2011 11 16.26771 23 30 15.865 -01 40 29.58 21.4 g F51 – Pan-STARRS 1, Haleakala MPS 401293
2011 11 16.26919 23 30 15.884 -01 40 29.17 21.3 g F51 – Pan-STARRS 1, Haleakala MPS 401293
2011 11 16.27512 23 30 15.996 -01 40 27.35 21.4 g F51 – Pan-STARRS 1, Haleakala MPS 401293
2011 11 16.27659 23 30 16.022 -01 40 26.85 21.4 g F51 – Pan-STARRS 1, Haleakala MPS 401293
2011 11 16.27860 23 30 16.055 -01 40 26.28 21.0 r F51 – Pan-STARRS 1, Haleakala MPS 400262
2011 11 16.28008 23 30 16.082 -01 40 25.83 20.8 r F51 – Pan-STARRS 1, Haleakala MPS 400262
2011 11 16.28156 23 30 16.110 -01 40 25.44 20.9 r F51 – Pan-STARRS 1, Haleakala MPS 400262
2011 11 16.28452 23 30 16.162 -01 40 24.50 20.9 r F51 – Pan-STARRS 1, Haleakala MPS 400262
2011 11 16.28600 23 30 16.188 -01 40 23.98 20.9 r F51 – Pan-STARRS 1, Haleakala MPS 400262
2011 11 16.28898 23 30 16.238 -01 40 23.15 20.9 r F51 – Pan-STARRS 1, Haleakala MPS 400262
2011 11 17.16556 23 30 34.59 -01 35 55.2 20.3 V G96 – Mt. Lemmon Survey MPS 400262
2011 11 17.17248 23 30 34.74 -01 35 52.8 20.7 V G96 – Mt. Lemmon Survey MPS 400262
2011 11 17.17933 23 30 34.88 -01 35 51.2 20.1 V G96 – Mt. Lemmon Survey MPS 400262
2011 11 23.22510 23 33 18.395 -01 01 52.39 21.1 r F51 – Pan-STARRS 1, Haleakala MPS 401293
2011 11 23.22658 23 33 18.433 -01 01 51.87 21.0 r F51 – Pan-STARRS 1, Haleakala MPS 401293
2011 11 23.22806 23 33 18.493 -01 01 51.26 20.9 r F51 – Pan-STARRS 1, Haleakala MPS 401293
2011 11 23.22954 23 33 18.522 -01 01 50.81 21.0 r F51 – Pan-STARRS 1, Haleakala MPS 401293
2011 11 23.23105 23 33 18.577 -01 01 50.15 21.1 r F51 – Pan-STARRS 1, Haleakala MPS 401293
2011 11 23.23254 23 33 18.601 -01 01 49.63 21.0 r F51 – Pan-STARRS 1, Haleakala MPS 401293
2011 11 23.23403 23 33 18.665 -01 01 48.90 21.0 r F51 – Pan-STARRS 1, Haleakala MPS 401293
2011 11 23.23873 23 33 18.795 -01 01 47.19 21.0 i F51 – Pan-STARRS 1, Haleakala MPS 401293
2011 11 23.24167 23 33 18.889 -01 01 46.34 21.0 i F51 – Pan-STARRS 1, Haleakala MPS 401293
2011 11 23.24462 23 33 18.974 -01 01 45.43 21.0 i F51 – Pan-STARRS 1, Haleakala MPS 401293
2011 11 23.24755 23 33 19.051 -01 01 44.18 21.1 i F51 – Pan-STARRS 1, Haleakala MPS 401293
2013 02 06.35104 11 20 45.40 +10 10 56.2 21.0 V 691 – Steward Observatory, Kitt Peak-Spacewatch MPS 457869
2013 02 06.36878 11 20 44.61 +10 11 00.1 20.9 V 691 – Steward Observatory, Kitt Peak-Spacewatch MPS 457869
2013 02 06.38651 11 20 43.83 +10 11 03.6 21.0 V 691 – Steward Observatory, Kitt Peak-Spacewatch MPS 457869
2013 02 14.39999 11 14 19.023 +10 41 04.10 20.8 w F51 – Pan-STARRS 1, Haleakala MPS 456560
2013 02 14.41455 11 14 18.217 +10 41 07.72 20.8 w F51 – Pan-STARRS 1, Haleakala MPS 456560
2013 02 14.42917 11 14 17.408 +10 41 11.28 20.8 w F51 – Pan-STARRS 1, Haleakala MPS 456560
2013 02 18.36808 11 10 38.30 +10 57 06.4 19.9 R H06 – iTelescope Observatory, Mayhill MPS 456560
2013 02 18.39008 11 10 37.05 +10 57 12.6 19.7 R H06 – iTelescope Observatory, Mayhill MPS 456560
2013 02 18.41194 11 10 35.72 +10 57 17.8 20.1 R H06 – iTelescope Observatory, Mayhill MPS 456560
2013 03 02.26905 10 58 28.59 +11 44 44.5 19.6 V G96 – Mt. Lemmon Survey MPS 457869
2013 03 02.27442 10 58 28.27 +11 44 45.2 19.8 V G96 – Mt. Lemmon Survey MPS 457869
2013 03 02.27979 10 58 27.87 +11 44 45.5 19.4 V G96 – Mt. Lemmon Survey MPS 457869
2013 03 02.28520 10 58 27.51 +11 44 46.8 20.1 V G96 – Mt. Lemmon Survey MPS 457869
2013 03 03.47452 10 57 12.016 +11 49 12.89 20.5 r F51 – Pan-STARRS 1, Haleakala MPS 457869
2013 03 03.48608 10 57 11.255 +11 49 15.40 20.6 r F51 – Pan-STARRS 1, Haleakala MPS 457869
2013 03 03.49880 10 57 10.437 +11 49 18.22 20.2 i F51 – Pan-STARRS 1, Haleakala MPS 457869
2013 03 03.51128 10 57 09.605 +11 49 20.95 20.2 i F51 – Pan-STARRS 1, Haleakala MPS 457869
2013 03 19.31626 10 41 26.62 +12 33 46.2 20.3 V G96 – Mt. Lemmon Survey MPS 460652
2013 03 19.32023 10 41 26.41 +12 33 46.8 20.5 V G96 – Mt. Lemmon Survey MPS 460652
2013 03 19.32424 10 41 26.19 +12 33 46.6 21.3 V G96 – Mt. Lemmon Survey MPS 460652
2013 03 19.32822 10 41 25.98 +12 33 47.8 20.9 V G96 – Mt. Lemmon Survey MPS 460652
2013 04 08.18768 10 28 40.54 +12 38 42.7 21.4 V G96 – Mt. Lemmon Survey MPS 462797
2013 04 08.19352 10 28 40.40 +12 38 41.9 21.5 V G96 – Mt. Lemmon Survey MPS 462797
2013 04 08.19940 10 28 40.26 +12 38 41.1 21.3 V G96 – Mt. Lemmon Survey MPS 462797
2013 04 08.20518 10 28 40.11 +12 38 41.4 21.2 V G96 – Mt. Lemmon Survey MPS 462797
2015 11 19.41019 04 51 52.03 +32 32 33.5 20.0 V G96 – Mt. Lemmon Survey MPS 653368
2015 11 19.41650 04 51 51.62 +32 32 34.2 20.0 V G96 – Mt. Lemmon Survey MPS 653368
2015 11 19.42283 04 51 51.18 +32 32 35.3 19.7 V G96 – Mt. Lemmon Survey MPS 653368
2015 11 19.42914 04 51 50.80 +32 32 35.7 19.9 V G96 – Mt. Lemmon Survey MPS 653368
2015 11 22.25000 04 48 47.60 +32 38 07.9   G96 – Mt. Lemmon Survey MPS 653368
2015 11 22.25600 04 48 47.22 +32 38 08.4 20.1 V G96 – Mt. Lemmon Survey MPS 653368
2015 11 22.26200 04 48 46.82 +32 38 09.1 20.1 V G96 – Mt. Lemmon Survey MPS 653368
2015 11 22.26798 04 48 46.41 +32 38 09.8 19.9 V G96 – Mt. Lemmon Survey MPS 653368
2015 12 08.21679 04 29 40.38 +32 39 56.3 20.4 V 703 – Catalina Sky Survey MPS 659558
2015 12 08.22179 04 29 39.99 +32 39 55.0 20.4 V 703 – Catalina Sky Survey MPS 659558
2015 12 08.23184 04 29 39.30 +32 39 54.1 20.1 V 703 – Catalina Sky Survey MPS 659558
2017 03 21.44630 13 50 23.256 -13 27 36.25 21.0 w F51 – Pan-STARRS 1, Haleakala MPS 781606
2017 03 21.45825 13 50 22.725 -13 27 35.60 21.3 w F51 – Pan-STARRS 1, Haleakala MPS 781606
2017 03 21.47024 13 50 22.171 -13 27 34.58 21.3 w F51 – Pan-STARRS 1, Haleakala MPS 781606
2017 03 21.48221 13 50 21.624 -13 27 34.13 21.3 w F51 – Pan-STARRS 1, Haleakala MPS 781606
2017 03 28.50409 13 44 40.676 -13 16 41.01 21.2 w F51 – Pan-STARRS 1, Haleakala MPS 784768
2017 03 28.52742 13 44 39.394 -13 16 38.26 21.1 w F51 – Pan-STARRS 1, Haleakala MPS 784768
2017 03 28.53907 13 44 38.761 -13 16 36.60 20.9 w F51 – Pan-STARRS 1, Haleakala MPS 784768
